QPF
0.00 0.00 0.01 0.00 0.00 0.00 0.00 0.00 0.00 0.00 0.00 0.00 0.00 0.00 0.00 0.00 0.00 0.00 0.00 0.00 0.00 0.00 0.00 0.00 0.00 0.00 0.00 0.00 0.00 0.00 0.00 0.00 0.01 0.04 0.05 0.03 0.00 0.01 0.00 0.00 0.00 0.00 0.00
0.00 0.00 0.00 0.00 0.00 0.00 0.00 0.00 0.00 0.00 0.00 0.00 0.00 0.00 0.00 0.00 0.00 0.00 0.00 0.00 0.00 0.00 0.00 0.00 0.00 0.00 0.00 0.00 0.00 0.00 0.03 0.06 0.04 0.15 0.36 0.72 0.42 0.09 0.01 0.00 0.01 0.01 0.00
0.00 0.00 0.00 0.00 0.00 0.00 0.00 0.00 0.00 0.00 0.00 0.00 0.00 0.00 0.00 0.00 0.00 0.00 0.00 0.00 0.00 0.00 0.00 0.00 0.00 0.00 0.00 0.00 0.00 0.03 0.08 0.15 0.16 0.11 0.25 1.27 1.77 0.07 0.06 0.01 0.00 0.00 0.00
0.00 0.00 0.00 0.00 0.00 0.00 0.00 0.00 0.00 0.00 0.00 0.00 0.00 0.00 0.00 0.00 0.00 0.00 0.00 0.00 0.00 0.00 0.00 0.00 0.00 0.00 0.00 0.00 0.03 0.16 0.19 0.15 0.13 0.10 0.13 0.60 1.63 0.21 0.18 0.07 0.02 0.02 0.00
0.00 0.00 0.00 0.00 0.00 0.00 0.00 0.00 0.00 0.00 0.00 0.00 0.00 0.00 0.00 0.00 0.00 0.00 0.00 0.00 0.00 0.00 0.00 0.00 0.00 0.00 0.00 0.01 0.10 0.21 0.20 0.05 0.06 0.08 0.03 0.45 0.28 0.24 0.29 0.16 0.12 0.05 0.05
0.00 0.00 0.00 0.00 0.00 0.00 0.00 0.00 0.00 0.00 0.00 0.00 0.00 0.00 0.00 0.00 0.00 0.00 0.00 0.00 0.00 0.00 0.00 0.00 0.00 0.00 0.02 0.07 0.14 0.18 0.22 0.17 0.14 0.08 0.02 0.15 0.17 0.27 0.07 0.00 0.02 0.00 0.00
0.00 0.00 0.00 0.00 0.00 0.00 0.00 0.00 0.00 0.00 0.00 0.00 0.00 0.00 0.00 0.00 0.00 0.00 0.00 0.00 0.00 0.00 0.00 0.00 0.02 0.06 0.08 0.10 0.11 0.13 0.14 0.15 0.13 0.08 0.04 0.02 0.04 0.15 0.06 0.00 0.00 0.00 0.00
0.00 0.00 0.00 0.00 0.01 0.00 0.00 0.00 0.00 0.00 0.00 0.00 0.00 0.00 0.00 0.00 0.00 0.00 0.00 0.00 0.00 0.00 0.00 0.03 0.08 0.09 0.09 0.12 0.10 0.09 0.05 0.03 0.17 0.27 0.04 0.02 0.01 0.06 0.01 0.00 0.00 0.00 0.00
0.00 0.00 0.00 0.00 0.00 0.00 0.00 0.00 0.00 0.00 0.00 0.00 0.00 0.00 0.00 0.00 0.00 0.00 0.00 0.00 0.00 0.00 0.00 0.05 0.08 0.09 0.09 0.09 0.08 0.07 0.02 0.00 0.01 0.07 0.03 0.00 0.00 0.02 0.00 0.00 0.00 0.00 0.00
0.00 0.00 0.00 0.00 0.00 0.00 0.00 0.00 0.00 0.00 0.00 0.00 0.00 0.00 0.00 0.00 0.01 0.00 0.00 0.00 0.00 0.00 0.00 0.05 0.07 0.11 0.09 0.10 0.08 0.09 0.02 0.00 0.02 0.03 0.03 0.02 0.02 0.00 0.00 0.00 0.00 0.00 0.01
0.00 0.00 0.00 0.00 0.00 0.00 0.00 0.00 0.00 0.00 0.00 0.00 0.00 0.00 0.00 0.01 0.03 0.00 0.00 0.00 0.00 0.00 0.01 0.03 0.08 0.09 0.01 0.05 0.06 0.04 0.04 0.00 0.00 0.00 0.01 0.02 0.00 0.00 0.00 0.00 0.02 0.04 0.05
0.00 0.00 0.00 0.00 0.00 0.00 0.00 0.00 0.00 0.00 0.00 0.00 0.00 0.00 0.00 0.00 0.00 0.00 0.00 0.00 0.00 0.00 0.00 0.01 0.07 0.03 0.03 0.03 0.03 0.04 0.03 0.01 0.00 0.00 0.02 0.02 0.01 0.01 0.00 0.00 0.02 0.04 0.05
0.00 0.00 0.00 0.00 0.00 0.00 0.00 0.00 0.00 0.00 0.00 0.01 0.00 0.00 0.00 0.00 0.00 0.02 0.00 0.01 0.01 0.00 0.00 0.00 0.00 0.05 0.13 0.07 0.02 0.04 0.00 0.00 0.00 0.00 0.03 0.02 0.03 0.03 0.01 0.01 0.01 0.01 0.00
0.00 0.00 0.00 0.00 0.00 0.00 0.00 0.00 0.00 0.00 0.00 0.01 0.00 0.00 0.00 0.00 0.00 0.02 0.03 0.00 0.00 0.00 0.00 0.00 0.01 0.10 0.12 0.11 0.07 0.09 0.00 0.00 0.00 0.00 0.02 0.02 0.02 0.01 0.01 0.02 0.01 0.00 0.00
0.00 0.00 0.00 0.00 0.00 0.00 0.00 0.00 0.00 0.00 0.00 0.00 0.00 0.00 0.00 0.00 0.00 0.00 0.00 0.00 0.00 0.00 0.00 0.01 0.06 0.17 0.06 0.10 0.09 0.01 0.00 0.00 0.00 0.00 0.00 0.02 0.01 0.02 0.02 0.02 0.02 0.01 0.00
0.00 0.00 0.00 0.00 0.00 0.00 0.00 0.00 0.00 0.00 0.00 0.00 0.00 0.00 0.00 0.00 0.00 0.00 0.00 0.00 0.00 0.00 0.00 0.02 0.10 0.15 0.03 0.02 0.02 0.06 0.10 0.01 0.00 0.00 0.00 0.01 0.02 0.03 0.01 0.01 0.02 0.02 0.04
0.00 0.00 0.00 0.00 0.00 0.00 0.00 0.00 0.00 0.00 0.00 0.00 0.00 0.00 0.00 0.00 0.00 0.00 0.00 0.00 0.00 0.00 0.00 0.00 0.02 0.08 0.03 0.00 0.02 0.02 0.07 0.02 0.01 0.01 0.00 0.00 0.00 0.01 0.00 0.00 0.01 0.01 0.01
0.00 0.00 0.00 0.00 0.00 0.00 0.00 0.00 0.00 0.00 0.00 0.00 0.00 0.00 0.00 0.00 0.00 0.00 0.01 0.00 0.00 0.00 0.00 0.00 0.03 0.07 0.13 0.03 0.02 0.00 0.02 0.01 0.01 0.01 0.01 0.00 0.00 0.00 0.00 0.00 0.00 0.01 0.00
0.00 0.00 0.00 0.00 0.00 0.00 0.00 0.00 0.00 0.00 0.00 0.00 0.00 0.00 0.00 0.00 0.00 0.01 0.00 0.00 0.00 0.00 0.00 0.00 0.01 0.01 0.07 0.14 0.05 0.02 0.01 0.00 0.00 0.00 0.00 0.00 0.00 0.00 0.00 0.00 0.00 0.01 0.00
0.00 0.00 0.00 0.00 0.00 0.00 0.00 0.00 0.00 0.00 0.00 0.00 0.00 0.00 0.00 0.00 0.01 0.02 0.00 0.03 0.01 0.00 0.00 0.00 0.01 0.04 0.09 0.09 0.03 0.03 0.03 0.00 0.00 0.00 0.00 0.00 0.00 0.00 0.00 0.00 0.00 0.00 0.00
0.00 0.00 0.00 0.00 0.00 0.00 0.00 0.00 0.00 0.00 0.00 0.00 0.00 0.00 0.00 0.00 0.01 0.02 0.00 0.00 0.00 0.00 0.00 0.00 0.01 0.04 0.13 0.07 0.03 0.01 0.00 0.01 0.00 0.00 0.00 0.00 0.00 0.00 0.00 0.00 0.00 0.00 0.00
0.00 0.00 0.00 0.00 0.00 0.00 0.00 0.00 0.00 0.00 0.00 0.00 0.00 0.00 0.00 0.00 0.00 0.00 0.00 0.00 0.00 0.00 0.00 0.00 0.00 0.02 0.03 0.12 0.10 0.04 0.02 0.00 0.00 0.00 0.00 0.00 0.00 0.00 0.00 0.00 0.00 0.00 0.00
0.00 0.00 0.00 0.00 0.00 0.00 0.00 0.00 0.00 0.00 0.00 0.00 0.00 0.00 0.00 0.00 0.00 0.00 0.00 0.00 0.00 0.01 0.00 0.00 0.00 0.00 0.08 0.07 0.14 0.03 0.02 0.01 0.00 0.00 0.00 0.00 0.00 0.00 0.00 0.00 0.00 0.00 0.00
0.00 0.00 0.00 0.00 0.00 0.00 0.00 0.00 0.00 0.00 0.00 0.00 0.00 0.00 0.00 0.00 0.00 0.00 0.00 0.00 0.00 0.00 0.00 0.00 0.00 0.00 0.06 0.11 0.09 0.15 0.03 0.00 0.00 0.00 0.00 0.00 0.00 0.00 0.00 0.00 0.00 0.00 0.00
0.00 0.00 0.00 0.00 0.00 0.00 0.00 0.00 0.00 0.00 0.00 0.00 0.00 0.00 0.00 0.00 0.00 0.00 0.00 0.00 0.00 0.00 0.00 0.00 0.00 0.00 0.00 0.08 0.08 0.11 0.02 0.00 0.01 0.00 0.00 0.00 0.00 0.00 0.00 0.00 0.00 0.00 0.00
0.00 0.00 0.00 0.00 0.00 0.00 0.00 0.00 0.00 0.00 0.00 0.01 0.00 0.00 0.00 0.00 0.00 0.00 0.00 0.00 0.00 0.00 0.00 0.00 0.00 0.00 0.00 0.02 0.01 0.04 0.01 0.00 0.01 0.00 0.00 0.00 0.00 0.00 0.00 0.00 0.00 0.00 0.00
MSLP
1015.45 1015.37 1015.49 1015.64 1015.94 1016.20 1016.42 1016.61 1016.71 1016.73 1016.72 1016.83 1016.94 1017.04 1017.09 1017.14 1017.17 1017.15 1017.06 1017.00 1016.94 1016.89 1016.77 1016.66 1016.55 1016.46 1016.42 1016.40 1016.39 1016.35 1016.41 1016.34 1016.25 1016.25 1016.59 1016.80 1016.71 1016.67 1016.13 1015.92 1016.01 1016.29 1016.45
1014.91 1015.33 1015.52 1015.77 1016.08 1016.27 1016.51 1016.74 1016.95 1017.05 1017.02 1017.06 1017.11 1017.15 1017.19 1017.22 1017.22 1017.20 1017.16 1017.11 1017.11 1017.05 1016.85 1016.72 1016.60 1016.51 1016.53 1016.48 1016.38 1016.32 1016.42 1016.48 1016.46 1016.76 1017.22 1016.68 1016.47 1016.57 1016.42 1016.07 1016.22 1016.44 1016.65
1014.74 1015.22 1015.62 1015.93 1016.13 1016.41 1016.62 1016.87 1017.01 1017.10 1017.27 1017.31 1017.30 1017.33 1017.35 1017.32 1017.37 1017.28 1017.20 1017.19 1017.24 1017.12 1016.87 1016.73 1016.61 1016.46 1016.40 1016.29 1016.29 1016.27 1016.36 1016.34 1016.43 1016.87 1017.26 1017.17 1016.86 1016.83 1017.04 1016.33 1016.28 1016.63 1016.71
1014.55 1015.19 1015.71 1016.02 1016.18 1016.45 1016.78 1016.99 1017.10 1017.16 1017.27 1017.40 1017.45 1017.46 1017.47 1017.48 1017.48 1017.36 1017.25 1017.31 1017.19 1016.97 1016.76 1016.58 1016.44 1016.40 1016.31 1016.12 1016.07 1015.95 1016.37 1016.29 1016.31 1016.50 1017.02 1016.96 1016.55 1016.86 1016.75 1016.54 1016.58 1016.64 1016.61
1014.67 1015.35 1015.72 1016.05 1016.27 1016.48 1016.77 1017.04 1017.16 1017.26 1017.40 1017.50 1017.51 1017.51 1017.54 1017.52 1017.50 1017.46 1017.36 1017.26 1017.06 1016.84 1016.66 1016.38 1016.29 1016.30 1016.09 1016.03 1016.05 1016.10 1016.44 1015.96 1015.72 1016.11 1016.74 1016.54 1016.69 1016.81 1016.83 1016.76 1016.82 1016.75 1016.72
1014.78 1015.50 1015.84 1016.08 1016.40 1016.62 1016.77 1016.97 1017.23 1017.31 1017.37 1017.45 1017.55 1017.49 1017.52 1017.49 1017.52 1017.51 1017.40 1017.27 1017.02 1016.75 1016.45 1016.30 1016.27 1016.12 1016.03 1015.82 1015.91 1016.05 1015.83 1015.51 1015.87 1016.12 1016.70 1016.80 1016.75 1016.58 1016.62 1016.86 1017.05 1017.02 1017.06
1014.91 1015.58 1015.98 1016.17 1016.49 1016.70 1016.90 1017.01 1017.15 1017.36 1017.48 1017.53 1017.56 1017.55 1017.52 1017.51 1017.59 1017.54 1017.45 1017.26 1016.93 1016.68 1016.41 1016.44 1016.25 1015.92 1015.84 1015.77 1015.71 1015.83 1015.34 1015.59 1016.13 1016.41 1016.65 1016.78 1016.60 1016.62 1016.79 1017.00 1016.96 1017.17 1017.16
1014.99 1015.64 1016.02 1016.23 1016.49 1016.74 1016.94 1017.14 1017.22 1017.34 1017.46 1017.51 1017.54 1017.56 1017.57 1017.51 1017.63 1017.59 1017.48 1017.24 1016.95 1016.72 1016.42 1016.43 1016.24 1015.88 1016.18 1016.07 1015.91 1016.08 1015.70 1015.79 1016.23 1016.29 1016.54 1016.60 1016.55 1016.62 1016.70 1016.90 1016.95 1017.03 1017.11
1014.82 1015.53 1016.00 1016.29 1016.51 1016.73 1017.02 1017.21 1017.32 1017.40 1017.48 1017.44 1017.47 1017.52 1017.54 1017.57 1017.56 1017.44 1017.47 1017.31 1016.91 1016.51 1016.29 1016.38 1016.42 1016.16 1016.01 1016.25 1016.09 1016.06 1016.14 1016.11 1016.22 1016.43 1016.31 1016.46 1016.46 1016.53 1016.65 1016.80 1016.86 1016.93 1017.07
1015.05 1015.54 1016.05 1016.34 1016.59 1016.82 1017.13 1017.41 1017.46 1017.51 1017.50 1017.48 1017.38 1017.41 1017.42 1017.50 1017.58 1017.33 1017.43 1017.12 1017.02 1016.89 1016.56 1016.52 1016.52 1016.25 1016.23 1016.24 1016.27 1016.06 1016.24 1016.17 1016.33 1016.32 1016.39 1016.40 1016.38 1016.42 1016.57 1016.76 1016.92 1017.02 1017.05
1015.18 1015.73 1015.99 1016.43 1016.79 1017.06 1017.23 1017.49 1017.60 1017.64 1017.57 1017.45 1017.34 1017.28 1017.33 1017.50 1017.61 1017.48 1017.19 1016.97 1016.92 1016.67 1016.42 1016.31 1016.65 1016.46 1016.30 1016.38 1016.34 1016.27 1016.54 1016.71 1016.65 1016.80 1016.63 1016.46 1016.40 1016.52 1016.60 1016.80 1016.99 1017.05 1017.19
1015.13 1015.59 1016.04 1016.46 1016.80 1017.08 1017.24 1017.50 1017.80 1017.83 1017.76 1017.59 1017.38 1017.31 1017.44 1017.38 1017.25 1017.40 1017.47 1016.96 1016.48 1016.67 1016.33 1016.40 1016.56 1016.73 1016.51 1016.49 1016.56 1016.70 1017.05 1017.12 1017.16 1017.29 1017.28 1017.00 1016.79 1016.73 1016.75 1016.80 1016.82 1017.02 1017.15
1014.73 1015.49 1016.06 1016.36 1016.77 1017.07 1017.37 1017.62 1017.82 1017.86 1017.82 1017.63 1017.52 1017.35 1017.20 1016.95 1017.07 1017.64 1017.69 1017.17 1016.96 1016.70 1016.59 1016.81 1016.77 1017.24 1016.72 1016.81 1016.99 1017.24 1017.35 1017.56 1017.76 1017.82 1017.83 1017.52 1017.34 1017.14 1017.15 1017.10 1017.15 1017.18 1017.20
1014.39 1015.22 1015.85 1016.17 1016.67 1016.97 1017.27 1017.59 1017.80 1018.02 1017.89 1017.65 1017.66 1017.39 1017.35 1017.34 1017.41 1017.70 1017.52 1017.54 1017.64 1017.10 1016.90 1017.07 1017.03 1017.29 1017.20 1017.28 1017.31 1017.48 1017.37 1017.70 1018.02 1018.18 1018.18 1017.99 1017.83 1017.76 1017.74 1017.68 1017.66 1017.61 1017.62
1014.14 1014.62 1015.44 1015.95 1016.58 1016.84 1017.23 1017.53 1017.75 1017.95 1017.85 1017.77 1017.80 1017.60 1017.23 1017.42 1017.38 1017.61 1017.54 1017.33 1017.18 1016.91 1016.86 1017.17 1017.20 1017.51 1017.19 1017.52 1017.84 1017.67 1017.68 1018.19 1018.50 1018.60 1018.74 1018.53 1018.44 1018.42 1018.37 1018.27 1018.24 1018.15 1018.07
1013.83 1014.18 1014.87 1015.59 1015.96 1016.56 1017.09 1017.33 1017.63 1017.75 1017.66 1017.81 1017.89 1017.47 1017.31 1017.36 1017.43 1017.60 1017.30 1017.33 1017.09 1016.96 1017.24 1017.31 1017.52 1017.52 1017.39 1017.34 1017.66 1017.78 1018.39 1018.62 1018.92 1019.10 1019.20 1019.16 1018.90 1018.92 1018.89 1018.84 1018.76 1018.66 1018.65
1013.17 1013.75 1014.54 1015.17 1015.56 1016.27 1016.75 1017.00 1017.34 1017.59 1017.58 1017.78 1017.76 1017.28 1017.14 1017.38 1017.49 1017.74 1017.70 1017.42 1017.57 1017.28 1017.47 1017.37 1017.41 1017.72 1017.61 1017.61 1017.96 1018.10 1018.45 1018.80 1019.32 1019.56 1019.61 1019.63 1019.68 1019.56 1019.38 1019.33 1019.33 1019.23 1019.18
1012.42 1013.10 1013.93 1014.57 1015.17 1015.81 1016.32 1016.61 1016.98 1017.26 1017.40 1017.51 1017.65 1017.37 1017.06 1017.27 1017.38 1017.67 1017.68 1017.53 1017.96 1017.40 1017.46 1017.71 1018.02 1018.27 1018.42 1018.35 1018.35 1018.46 1018.42 1018.85 1019.22 1019.43 1019.81 1019.92 1020.10 1020.21 1020.03 1019.86 1019.79 1019.81 1019.74
1012.14 1012.88 1013.59 1014.02 1014.70 1015.20 1015.71 1016.24 1016.59 1016.88 1017.12 1017.25 1017.48 1017.38 1017.20 1017.30 1017.46 1017.77 1017.94 1017.92 1018.20 1017.79 1017.75 1017.86 1018.26 1018.54 1018.85 1018.98 1018.99 1019.07 1019.08 1019.06 1019.13 1019.34 1019.88 1020.29 1020.45 1020.65 1020.71 1020.61 1020.45 1020.34 1020.21
1011.81 1012.64 1013.34 1014.06 1014.41 1014.90 1015.57 1016.11 1016.45 1016.78 1016.83 1017.06 1017.19 1017.30 1017.19 1017.35 1017.57 1017.92 1017.87 1018.06 1018.13 1018.41 1018.32 1018.30 1018.45 1018.82 1018.82 1019.24 1019.31 1019.65 1019.65 1019.56 1019.37 1019.65 1020.19 1020.62 1020.96 1021.11 1021.34 1021.45 1021.36 1021.13 1020.94
1011.25 1012.19 1012.99 1013.82 1014.48 1014.97 1015.48 1015.96 1016.49 1016.83 1016.78 1017.00 1016.88 1017.04 1017.17 1017.25 1017.54 1017.88 1018.00 1018.09 1018.12 1018.49 1018.53 1018.52 1018.64 1019.11 1019.33 1019.42 1019.73 1020.30 1020.39 1020.15 1020.07 1020.29 1020.44 1020.75 1021.14 1021.57 1021.73 1021.96 1021.93 1021.90 1021.73
1010.76 1011.72 1012.69 1013.42 1014.19 1014.68 1015.16 1015.48 1016.03 1016.40 1016.58 1016.48 1016.53 1016.83 1017.07 1017.28 1017.54 1017.80 1018.04 1018.19 1018.11 1018.52 1018.41 1018.52 1018.79 1019.21 1019.43 1019.34 1020.04 1020.49 1020.95 1021.01 1020.76 1020.63 1020.85 1021.22 1021.43 1021.70 1022.03 1022.30 1022.42 1022.55 1022.46
1010.72 1011.39 1012.19 1012.93 1013.73 1014.34 1014.86 1015.30 1015.76 1016.14 1016.38 1016.44 1016.62 1016.83 1016.93 1017.16 1017.47 1017.68 1017.94 1018.07 1018.21 1018.48 1018.66 1018.72 1018.93 1019.14 1019.57 1019.47 1019.49 1019.80 1020.82 1021.09 1021.12 1021.07 1021.18 1021.55 1021.99 1022.25 1022.49 1022.69 1022.98 1023.08 1023.10
1009.93 1010.77 1011.58 1012.53 1013.36 1014.03 1014.45 1015.06 1015.61 1015.93 1016.38 1016.41 1016.53 1016.67 1016.85 1016.96 1017.29 1017.51 1017.78 1017.94 1018.11 1018.34 1018.65 1018.72 1018.88 1019.01 1019.32 1019.63 1019.35 1019.01 1019.25 1019.81 1020.91 1021.58 1021.23 1021.68 1022.14 1022.52 1022.73 1022.81 1023.32 1023.53 1023.58
1009.27 1010.20 1010.97 1011.87 1012.86 1013.53 1014.14 1014.62 1015.16 1015.68 1015.96 1016.05 1016.25 1016.56 1016.73 1016.80 1016.92 1017.27 1017.44 1017.72 1017.96 1018.18 1018.46 1018.56 1018.70 1018.93 1019.02 1019.30 1019.46 1019.29 1019.31 1019.72 1019.91 1020.74 1021.32 1021.63 1022.24 1022.61 1022.75 1022.89 1023.41 1023.81 1023.95
1008.51 1009.59 1010.51 1011.33 1012.22 1012.96 1013.61 1014.19 1014.64 1015.24 1015.62 1015.98 1016.26 1016.52 1016.71 1016.82 1016.93 1016.89 1017.08 1017.33 1017.63 1017.90 1018.27 1018.35 1018.34 1018.64 1018.77 1018.93 1019.00 1019.13 1019.12 1019.23 1019.61 1020.24 1020.81 1021.49 1022.09 1022.83 1022.86 1022.85 1023.44 1023.98 1024.22
Thickness
5796 5797 5795 5795 5793 5791 5789 5788 5787 5787 5787 5785 5784 5783 5783 5782 5781 5780 5780 5780 5780 5779 5779 5779 5780 5780 5778 5777 5776 5774 5770 5769 5768 5767 5761 5758 5759 5756 5762 5763 5760 5756 5752
5802 5799 5798 5796 5794 5792 5791 5789 5787 5786 5786 5786 5785 5784 5784 5783 5783 5782 5782 5782 5781 5780 5782 5782 5782 5781 5778 5776 5775 5773 5768 5767 5763 5761 5756 5754 5755 5757 5755 5758 5755 5751 5749
5807 5802 5799 5797 5796 5794 5792 5790 5788 5788 5786 5785 5785 5784 5785 5785 5784 5784 5785 5784 5782 5782 5785 5785 5785 5784 5782 5780 5777 5774 5770 5767 5764 5756 5750 5751 5754 5752 5748 5754 5751 5746 5745
5809 5804 5801 5798 5797 5795 5792 5791 5790 5789 5788 5786 5786 5786 5786 5785 5786 5787 5787 5785 5784 5787 5789 5789 5788 5785 5783 5782 5781 5779 5770 5767 5764 5757 5751 5750 5753 5752 5749 5750 5749 5744 5745
5810 5806 5803 5800 5798 5796 5794 5792 5791 5790 5789 5787 5787 5788 5787 5787 5788 5788 5787 5787 5789 5791 5791 5792 5790 5787 5786 5785 5782 5777 5770 5773 5772 5761 5755 5756 5758 5754 5749 5748 5747 5746 5744
5811 5806 5804 5802 5799 5797 5796 5794 5792 5792 5791 5791 5789 5790 5790 5790 5789 5788 5788 5789 5792 5794 5794 5793 5791 5789 5788 5789 5784 5779 5777 5779 5776 5770 5758 5755 5756 5757 5755 5751 5747 5746 5745
5812 5807 5804 5802 5801 5799 5797 5796 5795 5794 5793 5793 5792 5791 5792 5792 5790 5789 5790 5791 5794 5795 5795 5792 5792 5794 5794 5791 5788 5784 5787 5781 5773 5770 5766 5762 5764 5762 5756 5751 5750 5747 5746
5814 5808 5805 5803 5802 5800 5799 5797 5796 5795 5794 5795 5795 5794 5793 5793 5790 5791 5792 5793 5794 5795 5796 5795 5792 5796 5792 5792 5789 5785 5786 5783 5777 5774 5769 5767 5766 5764 5760 5757 5755 5754 5751
5816 5810 5807 5804 5803 5800 5798 5797 5796 5796 5795 5796 5797 5796 5795 5794 5793 5795 5793 5793 5795 5797 5799 5795 5793 5795 5794 5791 5790 5789 5786 5784 5781 5780 5777 5774 5772 5770 5767 5765 5763 5761 5756
5817 5812 5807 5805 5803 5801 5799 5796 5795 5795 5796 5796 5798 5798 5798 5796 5795 5796 5792 5795 5795 5795 5797 5795 5795 5797 5794 5793 5793 5793 5788 5787 5784 5783 5780 5779 5777 5775 5772 5769 5765 5760 5758
5816 5813 5809 5806 5802 5800 5799 5797 5796 5795 5796 5798 5798 5799 5800 5798 5795 5797 5797 5797 5795 5797 5802 5799 5794 5797 5798 5794 5796 5795 5792 5788 5784 5783 5782 5782 5781 5777 5774 5769 5765 5763 5759
5813 5812 5811 5805 5803 5800 5798 5796 5795 5795 5795 5798 5800 5799 5800 5800 5799 5796 5796 5797 5799 5799 5802 5799 5795 5794 5802 5798 5795 5794 5790 5785 5784 5779 5779 5778 5778 5777 5774 5771 5769 5765 5761
5818 5813 5810 5807 5803 5800 5798 5796 5795 5794 5794 5796 5798 5800 5801 5803 5802 5796 5796 5795 5798 5801 5800 5796 5797 5794 5799 5798 5794 5792 5788 5785 5782 5778 5776 5777 5776 5776 5774 5771 5769 5765 5763
5820 5814 5812 5808 5804 5802 5800 5797 5795 5793 5793 5795 5797 5798 5801 5801 5800 5797 5799 5796 5794 5800 5800 5799 5797 5795 5795 5795 5792 5791 5789 5785 5781 5779 5777 5776 5775 5773 5771 5769 5767 5765 5763
5820 5819 5814 5811 5807 5803 5800 5798 5796 5792 5791 5791 5791 5796 5801 5801 5801 5800 5801 5800 5799 5802 5802 5798 5798 5796 5798 5795 5791 5790 5789 5784 5779 5778 5775 5774 5773 5771 5768 5766 5765 5763 5762
5823 5822 5818 5814 5810 5806 5802 5800 5797 5794 5792 5789 5790 5796 5800 5801 5801 5799 5803 5803 5801 5801 5799 5800 5798 5798 5799 5796 5794 5792 5786 5782 5778 5776 5773 5772 5772 5770 5767 5766 5764 5762 5760
5827 5826 5818 5816 5812 5808 5804 5801 5798 5795 5793 5790 5789 5795 5798 5799 5800 5798 5799 5801 5800 5800 5797 5800 5800 5799 5799 5795 5794 5792 5787 5782 5777 5774 5773 5772 5769 5767 5767 5765 5762 5760 5757
5832 5827 5824 5820 5815 5810 5807 5803 5800 5797 5795 5793 5790 5792 5797 5798 5800 5799 5799 5800 5799 5801 5800 5798 5798 5795 5793 5794 5792 5791 5790 5786 5780 5776 5774 5772 5769 5767 5765 5763 5761 5758 5755
5834 5827 5822 5820 5815 5813 5809 5805 5801 5799 5797 5795 5793 5795 5796 5796 5797 5795 5796 5797 5796 5798 5800 5800 5797 5794 5789 5788 5788 5788 5789 5787 5784 5781 5775 5772 5769 5766 5762 5760 5758 5756 5753
5835 5828 5823 5816 5815 5813 5809 5804 5801 5798 5798 5795 5794 5794 5795 5794 5794 5792 5794 5796 5795 5795 5796 5797 5796 5794 5792 5788 5788 5784 5783 5783 5782 5778 5773 5769 5765 5763 5760 5757 5754 5752 5750
5839 5831 5824 5817 5813 5810 5805 5801 5797 5793 5795 5795 5795 5793 5793 5793 5792 5791 5792 5793 5794 5793 5795 5796 5795 5790 5787 5789 5782 5778 5777 5779 5779 5776 5773 5771 5768 5761 5757 5754 5751 5749 5746
5839 5832 5825 5819 5812 5810 5807 5804 5801 5797 5796 5797 5796 5792 5791 5789 5788 5788 5787 5790 5791 5792 5795 5795 5793 5789 5787 5789 5778 5773 5764 5768 5772 5774 5770 5767 5765 5762 5757 5753 5748 5745 5742
5838 5831 5825 5820 5816 5812 5809 5805 5801 5799 5796 5794 5794 5792 5791 5789 5787 5787 5786 5787 5788 5789 5790 5793 5792 5790 5782 5787 5786 5779 5763 5758 5764 5770 5768 5765 5762 5759 5754 5749 5745 5741 5738
5846 5839 5831 5823 5817 5812 5809 5804 5799 5794 5789 5792 5792 5792 5790 5789 5788 5787 5786 5786 5787 5787 5788 5791 5792 5791 5787 5781 5786 5790 5788 5780 5762 5755 5767 5764 5759 5756 5753 5749 5743 5738 5735
5851 5843 5836 5828 5819 5814 5809 5806 5801 5795 5795 5795 5794 5791 5790 5789 5789 5787 5787 5787 5786 5787 5787 5789 5790 5790 5790 5786 5783 5785 5786 5782 5780 5766 5754 5761 5760 5757 5753 5749 5743 5737 5734
5855 5845 5837 5830 5821 5817 5812 5807 5803 5798 5795 5792 5791 5788 5786 5787 5787 5788 5788 5787 5787 5786 5786 5788 5791 5791 5790 5789 5787 5788 5787 5782 5777 5773 5763 5760 5755 5751 5752 5749 5743 5736 5733